Location: Unspecified
(0.0000°N, 0.0000°E)
Time: 16:22:38
(UTC+00:00)

Hubble Space Telescope - Pass Details

Date: 09 December 2018
Orbit: 537 x 540 km, 28.5° (Epoch: 11 December)

Event Time Altitude Azimuth Distance (km) Brightness Sun altitude
Rises 19:27:25 0° 216° (SW) 2,677 5.3 -21.8°
Reaches altitude 10° 19:30:13 10° 197° (SSW) 1,786 4.0 -22.4°
Enters shadow 19:33:02 19° 154° (SSE) 1,319 2.7 -23.0°
